Flag for Switzerland Weather past 2 weeks in Wädenswil, Zurich, Switzerland

Now
50 °F

Cool.


Feels Like: 50 °F
Forecast: 48 / 71 °F
Wind: 2 mph from South

Location: Zurich Town / Ville.

Current Time: Apr 26, 2015 at 7:02:08 AM

Latest Report: Apr 26, 2015 at 6:00 AM


Visibility: N/A

Pressure: 29.89 "Hg

Humidity: 92%

Dew point: 47 °F

Location of WädenswilLocation

Historic Weather in Wädenswil — Graph

°F

Wädenswil temperature yesterday

Maximum temperature yesterday: 62 °F (at 2:00 PM)
Minimum temperature yesterday: 50 °F (at 5:00 AM)
Average temperature yesterday: 56 °F

Past Weeks' High & Low Weather Summary

 TemperatureHumidityPressure
High72 °F (Apr 15, 5:00 PM)96% (Apr 17, 10:00 PM)30.47 "Hg (Apr 17, 10:00 PM)
Low36 °F (Apr 19, 7:00 AM)19% (Apr 22, 7:00 PM)29.85 "Hg (Apr 24, 7:00 PM)
Average55 °F55%30.15 "Hg
* Reported Apr 11 5:00 AM — Apr 26 5:00 AM, Wädenswil, Weather by CustomWeather, © 2015

Note: Actual official high and low records may vary slightly from our data, if they occured in-between our weather recording intervals... More about our weather records

Advertising

Wädenswil weather history for previous 24 hours

 ConditionsComfort  
Time TempWeatherWind HumidityBarometerVisibility
5:00 AM
Sun, Apr 26
50 °FCool.5 mph92%29.90 "HgN/A
4:00 AM51 °FCool.2 mph94%29.92 "HgN/A
3:00 AM51 °FCool.2 mph91%29.92 "HgN/A
2:00 AM51 °FCool.1 mph94%29.93 "HgN/A
1:00 AM51 °FCool.1 mph94%29.94 "HgN/A
12:00 AM51 °FCool.5 mph93%29.94 "HgN/A
11:00 PM
Sat, Apr 25
52 °FCool.10 mph92%29.94 "HgN/A
10:00 PM53 °FCool.2 mph95%29.93 "HgN/A
9:00 PM57 °FCool.2 mph80%29.88 "HgN/A
8:00 PM58 °FPartly sunny.2 mph70%29.86 "HgN/A
7:00 PM60 °FCool.2 mph60%29.86 "HgN/A
6:00 PM60 °FCool.6 mph62%29.87 "HgN/A
5:00 PM58 °FCool.8 mph68%29.88 "HgN/A
4:00 PM60 °FCool.12 mph64%29.88 "HgN/A
3:00 PM61 °FRefreshingly cool.10 mph56%29.87 "HgN/A
2:00 PM62 °FRefreshingly cool.12 mph52%29.87 "HgN/A
1:00 PM61 °FRefreshingly cool.12 mph52%29.88 "HgN/A
12:00 PM61 °FRefreshingly cool.7 mph53%29.89 "HgN/A
11:00 AM60 °FRefreshingly cool.2 mph50%29.90 "HgN/A
10:00 AM57 °FRefreshingly cool.3 mph58%29.91 "HgN/A
9:00 AM55 °FCool.1 mph68%29.91 "HgN/A
8:00 AM54 °FCool.2 mph63%29.91 "HgN/A
7:00 AM52 °FCool.1 mph68%29.92 "HgN/A
Weather by CustomWeather, © 2015

See weather overviewHow to use our weather pages